FW5122 Weather Reports


Display with metric or nautical units.
time (UTC)temp
F
wind
direction
speed
MPH
gust
MPH
rain 1hr
in
rain 24hr
in
rain mn
in
humidity
%
barometer
mb
20260901192531 98 64 2.0 8.0 0.00 0.00 0.00 41 1015.8
20260901191831 98 58 2.0 8.0 0.00 0.00 0.00 41 1015.8
20260901191131 99 103 5.0 8.0 0.00 0.00 0.00 41 1015.8
20260901190431 98 73 0.0 8.0 0.00 0.00 0.00 42 1015.8
20260901185735 98 59 2.0 10.0 0.00 0.00 0.00 43 1016.2
20260901185031 97 64 8.0 10.0 0.00 0.00 0.00 43 1016.2
20260901184331 97 32 5.0 10.0 0.00 0.00 0.00 42 1016.5
20260901183631 99 60 5.0 10.0 0.00 0.00 0.00 41 1016.5
20260901182931 100 61 0.0 10.0 0.00 0.00 0.00 41 1016.8
20260901182231 100 83 5.0 10.0 0.00 0.00 0.00 42 1016.8
20260901181531 100 86 8.0 10.0 0.00 0.00 0.00 43 1016.8
20260901180831 99 51 8.0 8.0 0.00 0.00 0.00 43 1016.8
20260901180131 97 21 5.0 8.0 0.00 0.00 0.00 46 1017.2
20260901174731 97 59 2.0 10.0 0.00 0.00 0.00 44 1017.5
20260901173332 100 20 5.0 10.0 0.00 0.00 0.00 43 1017.5
20260901172631 100 57 0.0 10.0 0.00 0.00 0.00 44 1017.5
20260901171931 101 62 0.0 10.0 0.00 0.00 0.00 44 1017.9
20260901171231 101 59 5.0 10.0 0.00 0.00 0.00 45 1017.9
20260901170530 100 61 2.0 6.0 0.00 0.00 0.00 46 1017.9
20260901165831 98 60 2.0 6.0 0.00 0.00 0.00 46 1017.9
20260901163731 97 61 8.0 6.0 0.00 0.00 0.00 47 1018.2
20260901163031 98 58 0.0 6.0 0.00 0.00 0.00 48 1017.9
20260901162331 97 59 0.0 6.0 0.00 0.00 0.00 49 1018.5
20260901161631 96 56 2.0 6.0 0.00 0.00 0.00 49 1017.9
20260901160931 96 65 0.0 6.0 0.00 0.00 0.00 49 1018.2
20260901160232 96 51 5.0 6.0 0.00 0.00 0.00 51 1017.9
20260901155531 96 58 2.0 6.0 0.00 0.00 0.00 51 1018.2
20260901154831 95 55 0.0 6.0 0.00 0.00 0.00 52 1017.9
20260901154131 95 41 2.0 6.0 0.00 0.00 0.00 53 1018.2
20260901152730 92 52 2.0 6.0 0.00 0.00 0.00 55 1017.9
20260901152030 92 47 2.0 6.0 0.00 0.00 0.00 56 1017.9
20260901151331 91 59 0.0 6.0 0.00 0.00 0.00 58 1017.9
20260901150630 90 58 0.0 6.0 0.00 0.00 0.00 58 1018.2
20260901145931 89 69 2.0 6.0 0.00 0.00 0.00 59 1018.5
20260901145230 88 57 2.0 6.0 0.00 0.00 0.00 60 1018.5
20260901144531 88 60 2.0 6.0 0.00 0.00 0.00 60 1018.2
20260901143830 88 55 2.0 6.0 0.00 0.00 0.00 60 1018.5
20260901143130 88 58 0.0 6.0 0.00 0.00 0.00 60 1018.5
20260901142430 88 54 0.0 6.0 0.00 0.00 0.00 60 1018.2
20260901141731 88 57 2.0 6.0 0.00 0.00 0.00 60 1018.2
20260901141030 88 53 2.0 6.0 0.00 0.00 0.00 61 1018.5
20260901140331 87 61 0.0 6.0 0.00 0.00 0.00 62 1018.5
20260901135630 86 72 0.0 6.0 0.00 0.00 0.00 62 1018.5
20260901134931 86 60 0.0 6.0 0.00 0.00 0.00 63 1018.2
20260901134230 84 62 0.0 6.0 0.00 0.00 0.00 65 1018.5
20260901133530 83 61 0.0 6.0 0.00 0.00 0.00 65 1018.2
20260901132831 82 61 0.0 6.0 0.00 0.00 0.00 66 1018.2
20260901132130 82 66 5.0 6.0 0.00 0.00 0.00 66 1018.2
20260901131431 81 57 0.0 4.0 0.00 0.00 0.00 67 1018.2
20260901130030 80 71 5.0 4.0 0.00 0.00 0.00 67 1018.2
20260901125532 80 60 2.0 2.0 0.00 0.00 0.00 67 1018.2
20260901124830 80 61 0.0 2.0 0.00 0.00 0.00 67 1017.9
20260901124130 79 59 0.0 0.0 0.00 0.00 0.00 68 1017.9
20260901123431 79 61 0.0 0.0 0.00 0.00 0.00 68 1017.5
20260901122030 79 61 0.0 0.0 0.00 0.00 0.00 67 1017.5
20260901115933 79 59 0.0 2.0 0.00 0.00 0.00 66 1017.2
20260901115232 79 58 0.0 2.0 0.00 0.00 0.00 66 1017.5
20260901114533 79 59 0.0 2.0 0.00 0.00 0.00 66 1017.5
20260901113833 79 59 0.0 2.0 0.00 0.00 0.00 66 1017.2
20260901113133 79 60 0.0 2.0 0.00 0.00 0.00 65 1017.2
20260901112433 79 61 0.0 2.0 0.00 0.00 0.00 65 1017.2
20260901111733 80 59 0.0 2.0 0.00 0.00 0.00 65 1017.2
20260901110333 80 59 0.0 0.0 0.00 0.00 0.00 64 1017.2
20260901105633 80 61 0.0 4.0 0.00 0.00 0.00 63 1016.8
20260901104934 80 61 0.0 4.0 0.00 0.00 0.00 63 1016.8
20260901104233 80 60 0.0 4.0 0.00 0.00 0.00 62 1016.8
20260901103533 80 59 0.0 4.0 0.00 0.00 0.00 62 1016.8
20260901102135 81 59 0.0 4.0 0.00 0.00 0.00 61 1016.8
20260901100733 81 62 0.0 4.0 0.00 0.00 0.00 60 1017.2
20260901100033 81 62 0.0 4.0 0.00 0.00 0.00 60 1017.2
20260901095332 81 59 0.0 4.0 0.00 0.00 0.00 60 1016.8
20260901094633 81 60 0.0 4.0 0.00 0.00 0.00 60 1017.2
20260901093933 81 61 0.0 4.0 0.00 0.00 0.00 59 1017.2
20260901092532 81 59 0.0 0.0 0.00 0.00 0.00 59 1016.8
20260901091833 82 59 0.0 0.0 0.00 0.00 0.00 59 1017.2
20260901091133 82 55 0.0 0.0 0.00 0.00 0.00 59 1017.2
20260901085732 82 60 0.0 2.0 0.00 0.00 0.00 58 1016.8
20260901084333 82 59 0.0 2.0 0.00 0.00 0.00 57 1016.8
20260901083632 83 60 0.0 6.0 0.00 0.00 0.00 56 1016.8
20260901082932 83 59 0.0 6.0 0.00 0.00 0.00 56 1016.8
20260901082232 84 61 0.0 6.0 0.00 0.00 0.00 55 1016.8
20260901081533 84 64 0.0 6.0 0.00 0.00 0.00 55 1016.8
20260901080133 84 58 0.0 6.0 0.00 0.00 0.00 54 1016.8
20260901075434 84 64 2.0 6.0 0.00 0.00 0.00 54 1016.8
20260901074732 85 68 2.0 6.0 0.00 0.00 0.00 54 1016.8
20260901074032 85 57 0.0 6.0 0.00 0.00 0.00 53 1016.8
20260901073332 85 55 0.0 4.0 0.00 0.00 0.00 53 1016.8
20260901072632 85 81 2.0 2.0 0.00 0.00 0.00 53 1016.8
20260901071932 85 59 0.0 4.0 0.00 0.00 0.00 52 1016.8
20260901071232 85 55 0.0 4.0 0.00 0.00 0.00 52 1016.8
20260901070532 86 67 0.0 4.0 0.00 0.00 0.00 51 1016.8
20260901065132 86 61 0.0 6.0 0.00 0.00 0.00 51 1016.8
20260901064432 86 60 0.0 6.0 0.00 0.00 0.00 50 1016.5
20260901063732 87 58 0.0 6.0 0.00 0.00 0.00 49 1016.8
20260901063032 87 61 0.0 6.0 0.00 0.00 0.00 49 1016.5
20260901062332 87 58 0.0 6.0 0.00 0.00 0.00 49 1016.5
20260901060932 87 61 5.0 6.0 0.00 0.00 0.00 48 1016.5
20260901060232 87 63 2.0 6.0 0.00 0.00 0.00 48 1016.2
20260901055532 87 62 0.0 6.0 0.00 0.00 0.00 48 1016.2
20260901054832 87 64 2.0 6.0 0.00 0.00 0.00 47 1016.2
20260901054132 88 60 0.0 6.0 0.00 0.00 0.00 47 1015.8
20260901053432 87 60 0.0 6.0 0.00 0.00 0.00 47 1016.2
20260901052732 87 65 2.0 4.0 0.00 0.00 0.00 47 1015.8
20260901052032 87 65 5.0 4.0 0.00 0.00 0.00 47 1015.8
20260901051332 87 64 2.0 4.0 0.00 0.00 0.00 47 1015.8
20260901045933 86 62 0.0 2.0 0.00 0.00 0.00 46 1015.8
20260901044532 86 60 0.0 2.0 0.00 0.00 0.00 47 1015.5
20260901043832 85 59 0.0 2.0 0.00 0.00 0.00 47 1015.5
20260901041733 86 59 0.0 0.0 0.00 0.00 0.00 46 1015.5
20260901041032 86 59 0.0 0.0 0.00 0.00 0.00 46 1015.5
20260901040333 86 60 0.0 0.0 0.00 0.00 0.00 46 1015.5
20260901035632 87 59 0.0 0.0 0.00 0.00 0.00 46 1015.5
20260901034932 87 60 0.0 0.0 0.00 0.00 0.00 45 1015.5
20260901034232 87 59 0.0 0.0 0.00 0.00 0.00 44 1015.5
20260901033532 87 59 0.0 2.0 0.00 0.00 0.00 44 1015.5
20260901032832 87 60 0.0 2.0 0.00 0.00 0.00 44 1015.5
20260901032132 88 59 0.0 2.0 0.00 0.00 0.00 43 1015.1
20260901031433 88 59 0.0 2.0 0.00 0.00 0.00 43 1015.5
20260901030733 89 59 0.0 4.0 0.00 0.00 0.00 42 1015.1
20260901025332 89 59 0.0 4.0 0.00 0.00 0.00 42 1014.8
20260901024632 90 60 0.0 4.0 0.00 0.00 0.00 41 1015.1
20260901023232 90 59 0.0 4.0 0.00 0.00 0.00 40 1014.8
20260901022532 90 60 0.0 4.0 0.00 0.00 0.00 40 1014.8
20260901021132 90 76 0.0 0.0 0.00 0.00 0.00 40 1014.8
20260901020433 91 59 0.0 2.0 0.00 0.00 0.00 39 1014.5
20260901015733 91 61 0.0 2.0 0.00 0.00 0.00 39 1014.5
20260901015032 91 60 0.0 4.0 0.00 0.00 0.00 38 1014.5
20260901014332 92 60 0.0 4.0 0.00 0.00 0.00 38 1014.5
20260901013632 92 59 0.0 4.0 0.00 0.00 0.00 37 1014.5
20260901012932 93 58 0.0 6.0 0.00 0.00 0.00 36 1014.5
20260901012232 93 65 0.0 6.0 0.00 0.00 0.00 36 1014.8
20260901011532 93 60 0.0 6.0 0.00 0.00 0.00 35 1014.1
20260901010831 94 59 0.0 10.0 0.00 0.00 0.00 35 1014.1
20260901010132 94 59 0.0 10.0 0.00 0.00 0.00 34 1014.1
20260901005431 95 64 2.0 10.0 0.00 0.00 0.00 33 1014.1
20260901004732 95 59 0.0 10.0 0.00 0.00 0.00 33 1014.1
20260901003333 96 65 2.0 10.0 0.00 0.00 0.00 33 1014.1
20260901002632 96 63 2.0 10.0 0.00 0.00 0.00 32 1014.1
20260901001231 96 58 2.0 8.0 0.00 0.00 0.00 33 1014.1
20260901000532 97 62 0.0 10.0 0.00 0.00 0.00 32 1014.1
20260831235832 97 63 0.0 10.0 0.00 0.00 0.00 32 1014.1
20260831235131 98 66 5.0 10.0 0.00 0.00 0.00 31 1014.1
20260831234432 98 64 5.0 10.0 0.00 0.00 0.00 31 1014.1
20260831233731 98 59 2.0 10.0 0.00 0.00 0.00 31 1014.1
20260831233031 98 61 0.0 10.0 0.00 0.00 0.00 31 1014.1
20260831232331 98 57 0.0 10.0 0.00 0.00 0.00 31 1014.1
20260831231631 98 89 5.0 8.0 0.00 0.00 0.00 32 1014.1
20260831225531 98 61 0.0 12.0 0.00 0.00 0.00 33 1014.1
20260831224831 98 37 5.0 12.0 0.00 0.00 0.00 33 1014.1
20260831224131 99 85 5.0 12.0 0.00 0.00 0.00 33 1014.5
20260831223435 99 61 0.0 12.0 0.00 0.00 0.00 33 1014.5
20260831221332 100 113 8.0 12.0 0.00 0.00 0.00 32 1014.5
20260831215932 102 73 5.0 12.0 0.00 0.00 0.00 31 1014.5
20260831214532 104 77 5.0 12.0 0.00 0.00 0.00 31 1014.5
20260831213831 104 68 2.0 12.0 0.00 0.00 0.00 30 1014.5
20260831213132 104 62 2.0 12.0 0.00 0.00 0.00 31 1014.8
20260831212432 103 55 8.0 12.0 0.00 0.00 0.00 30 1014.8
20260831211032 105 52 8.0 12.0 0.00 0.00 0.00 30 1015.1
20260831210332 105 59 11.0 12.0 0.00 0.00 0.00 30 1014.8
20260831204932 103 55 2.0 12.0 0.00 0.00 0.00 31 1015.1
20260831204231 103 76 2.0 12.0 0.00 0.00 0.00 31 1015.5
20260831203531 104 62 2.0 12.0 0.00 0.00 0.00 30 1015.5
20260831202831 104 60 5.0 17.0 0.00 0.00 0.00 31 1015.8
20260831202136 103 69 17.0 17.0 0.00 0.00 0.00 32 1015.8
20260831201431 104 64 8.0 17.0 0.00 0.00 0.00 31 1015.8
20260831200031 103 92 11.0 17.0 0.00 0.00 0.00 33 1015.8
20260831195331 102 67 5.0 17.0 0.00 0.00 0.00 33 1015.8
20260831194631 102 16 5.0 17.0 0.00 0.00 0.00 33 1016.2
20260831193931 101 40 11.0 17.0 0.00 0.00 0.00 34 1016.2
20260831193231 101 66 5.0 10.0 0.00 0.00 0.00 35 1016.5